Wind_Speed
15 14 12 11 9 8 8 8 9 10 11 11 12 13 14 15 15 15 15 15 14 13 12 11 11 10 9 8 8 8 7 7 7 7 7 7 6 4 2 1 0 1 0
12 11 10 8 7 5 5 6 7 8 9 9 10 11 11 12 12 13 13 13 13 12 10 9 9 8 7 7 7 7 7 6 6 6 6 6 5 4 2 1 1 2 2
9 8 7 6 4 4 4 5 5 6 7 8 8 8 9 9 10 10 11 11 11 10 9 8 7 6 6 6 6 6 6 6 6 5 5 5 5 4 3 2 1 2 3
6 5 4 4 3 3 4 5 5 5 6 6 7 7 7 7 8 8 9 9 9 8 8 7 5 4 4 4 4 5 5 5 5 5 4 4 3 3 3 2 2 2 2
3 3 3 3 2 3 3 4 5 5 5 5 6 5 5 6 6 7 7 8 8 8 7 6 5 4 3 2 3 3 4 5 5 4 3 3 3 3 3 2 2 3 2
3 2 2 2 2 3 3 4 5 5 5 5 5 5 5 5 5 5 6 7 7 7 7 7 6 5 3 3 3 3 4 4 4 4 3 2 2 2 2 3 3 3 3
4 2 0 2 3 4 4 5 5 5 5 5 5 5 5 4 4 4 5 6 7 7 7 7 7 6 5 4 4 4 4 5 5 4 4 3 3 3 3 3 4 4 4
5 4 2 3 4 5 5 5 6 6 6 6 6 6 5 5 4 4 4 5 6 7 7 8 8 8 8 7 6 6 6 6 6 6 5 5 5 5 5 5 5 5 5
7 6 5 6 6 7 7 6 6 6 6 7 7 6 6 6 5 5 5 5 6 6 7 8 8 9 9 8 7 7 7 8 8 8 8 7 7 7 7 7 7 6 6
9 8 8 8 9 9 9 8 8 8 8 8 9 8 8 7 7 6 6 6 6 7 7 8 8 9 9 9 8 7 8 8 9 10 10 10 10 10 10 10 9 8 8
11 10 10 10 11 11 11 11 11 10 10 11 11 10 9 9 8 8 8 8 8 8 8 8 9 10 9 9 8 8 8 8 9 11 12 12 12 12 12 12 11 11 10
11 11 12 12 12 13 13 13 13 13 13 13 12 12 11 11 11 11 11 11 11 11 11 10 10 11 10 10 9 9 8 9 10 11 12 13 14 14 14 14 14 13 13
11 12 12 13 13 14 14 15 15 15 15 15 14 14 14 14 14 14 14 14 14 15 14 13 13 13 12 11 11 10 10 10 11 12 13 14 15 16 16 16 16 16 15
13 14 14 14 15 16 16 17 17 16 16 16 16 16 17 17 17 17 17 17 17 18 17 17 16 16 15 14 14 13 13 13 13 14 14 15 16 17 17 18 18 17 17
16 17 17 17 18 18 19 19 19 19 19 19 19 19 19 20 20 20 21 21 21 21 21 20 19 19 18 17 16 16 16 16 16 16 16 16 17 18 18 19 20 20 20
21 21 21 21 22 22 23 23 23 23 23 23 23 24 24 24 24 24 24 24 24 23 23 23 22 21 21 20 19 19 19 20 20 19 19 19 19 20 20 21 21 22 21
25 25 26 26 26 27 28 28 28 28 28 29 29 29 29 29 29 28 28 28 27 26 26 26 25 24 24 23 22 22 23 23 24 23 23 22 22 22 22 22 22 23 23
30 30 31 31 31 32 32 33 33 33 33 33 33 33 34 34 34 33 32 32 31 30 30 29 28 28 27 26 25 25 26 26 27 27 27 26 26 25 25 25 25 24 24
36 36 36 36 36 36 37 37 36 36 36 37 37 37 38 38 38 38 37 37 36 34 34 33 31 30 30 29 28 28 28 29 30 31 31 31 30 29 28 28 27 27 26
42 41 41 40 40 41 41 41 40 40 40 40 41 41 42 41 42 43 42 42 40 39 37 36 35 33 32 32 31 31 31 32 33 34 34 34 34 33 32 31 30 29 28
45 45 45 44 44 45 44 44 43 43 42 41 43 44 44 44 44 45 45 45 45 43 42 40 38 36 35 34 33 33 33 34 34 36 37 37 37 36 35 34 33 32 31
45 46 46 46 46 46 47 46 45 46 45 44 43 44 45 46 47 47 48 47 46 44 43 42 40 37 36 35 35 34 34 34 35 36 38 38 39 38 38 36 35 34 33
42 44 44 45 46 47 48 48 48 49 47 45 44 45 46 46 47 48 47 46 46 44 43 42 39 38 36 36 36 35 35 34 35 35 37 39 39 40 39 37 36 35 35
41 43 44 45 46 47 47 48 49 49 48 46 46 47 45 45 46 46 45 45 46 43 41 39 37 37 36 35 35 35 35 35 35 35 36 37 38 39 39 38 37 36 35
42 44 45 46 48 49 49 50 52 51 50 49 49 49 48 48 47 46 44 45 42 40 38 37 35 34 33 33 34 34 35 35 36 36 35 35 36 37 37 37 36 35 34
42 43 45 47 49 50 51 52 53 53 52 51 50 50 49 47 47 47 46 42 37 36 35 33 32 32 32 32 33 34 35 35 36 36 35 34 34 35 35 36 35 34 34
Wind_Direction
127 126 123 117 109 98 87 81 79 78 77 75 71 68 65 64 63 64 65 67 68 69 68 66 64 62 60 59 58 56 54 51 47 45 43 40 39 40 38 28 323 292 42
130 129 125 117 106 88 72 68 70 71 71 70 67 64 61 59 58 58 58 60 62 64 65 64 63 62 58 56 55 54 52 50 48 46 44 42 40 38 33 5 289 274 269
134 130 124 115 100 74 50 47 55 60 63 64 63 59 56 54 53 52 52 53 56 59 60 60 58 57 55 50 47 47 46 47 48 47 46 44 41 37 28 7 315 285 276
139 132 118 101 81 57 35 32 38 44 48 52 55 54 51 49 46 43 43 43 45 48 53 54 51 48 45 42 37 33 33 37 42 45 45 41 37 34 28 12 348 312 288
139 124 99 76 51 36 28 25 22 26 32 37 39 40 38 38 37 34 35 36 37 37 38 40 39 34 24 17 15 13 14 18 27 34 35 30 25 23 22 1 342 324 295
142 109 76 43 6 360 5 3 2 8 18 26 27 26 25 22 20 22 26 30 33 31 29 27 25 18 6 348 338 341 349 358 7 14 16 5 353 351 353 348 320 316 292
182 176 70 344 328 330 341 346 348 353 4 11 13 12 11 9 8 11 16 20 22 22 20 16 11 5 352 336 322 319 324 333 341 348 345 337 325 319 320 326 322 308 291
214 219 251 286 296 302 312 323 330 334 343 352 355 357 359 0 355 350 356 3 6 8 10 8 4 360 352 339 326 315 311 315 320 327 330 325 317 309 307 307 315 308 310
236 244 259 273 283 287 293 300 309 315 322 331 336 338 339 338 331 326 328 335 343 349 353 356 356 355 352 344 331 321 311 306 308 311 313 314 310 306 303 301 301 299 301
251 258 265 273 278 282 284 288 293 298 303 312 317 317 317 317 312 305 306 311 318 325 331 339 342 343 345 345 336 322 315 306 302 302 304 305 304 304 302 299 296 295 295
259 262 265 271 276 278 280 283 286 290 294 301 306 305 303 303 300 294 292 295 300 303 308 316 323 330 333 338 337 329 319 309 301 299 299 300 300 300 300 298 295 292 291
266 266 267 269 272 275 278 280 284 288 292 296 299 299 297 294 291 288 286 286 288 290 293 297 304 312 317 323 327 326 321 316 309 301 297 296 296 296 296 296 294 292 289
270 270 271 271 271 273 275 278 282 287 290 293 293 295 294 292 288 284 282 281 282 283 285 288 292 295 301 306 312 316 318 317 317 311 305 298 294 294 294 292 292 290 287
274 274 274 274 274 275 277 279 282 286 289 291 291 289 290 288 285 283 281 279 279 280 280 281 282 285 288 294 300 305 310 312 313 314 310 303 298 294 292 291 289 287 285
275 274 274 274 275 276 277 278 279 282 285 287 287 287 287 285 283 282 280 278 277 276 275 275 275 277 279 284 290 296 302 306 307 308 310 307 301 297 294 290 286 284 282
275 273 272 272 272 273 274 275 276 278 280 282 283 282 282 282 280 279 277 276 275 273 272 271 270 271 273 277 283 288 293 297 299 302 303 304 302 299 296 293 288 282 279
274 273 272 271 271 271 272 273 274 275 277 279 280 280 280 279 278 276 274 273 272 271 269 268 267 268 269 272 277 282 286 290 293 296 297 299 300 298 296 294 291 285 279
273 272 272 271 271 270 271 272 272 273 275 276 277 278 277 277 276 274 272 271 270 268 267 265 265 265 267 270 273 277 281 284 287 290 293 295 296 296 295 293 291 287 281
273 272 272 271 271 270 271 270 271 271 272 273 275 276 276 274 274 274 273 270 268 266 265 263 262 264 265 268 270 274 277 281 284 287 289 291 293 294 293 292 291 288 284
272 272 272 272 271 269 269 268 268 268 268 270 271 272 273 273 273 274 272 270 267 265 263 261 261 262 263 265 267 271 274 278 281 285 288 290 291 292 291 290 289 287 283
271 271 270 270 270 269 270 268 266 266 267 269 270 270 272 271 272 272 273 271 268 266 262 261 260 259 261 263 266 269 273 276 279 283 287 289 290 290 290 289 287 285 281
269 269 269 270 270 270 270 269 268 268 267 270 272 271 272 271 270 273 274 273 270 266 262 261 261 259 259 262 266 268 270 275 279 283 286 288 289 289 288 287 284 282 280
267 268 268 270 270 271 271 271 272 273 272 272 274 274 274 273 274 274 273 272 271 267 263 262 260 257 258 262 266 269 272 276 279 283 286 287 288 288 287 286 284 282 279
266 267 268 270 271 272 272 274 275 276 276 278 279 279 279 278 278 280 274 271 271 268 265 263 261 258 260 262 267 272 276 280 282 284 286 287 287 287 286 285 284 282 279
268 268 269 271 272 273 275 276 277 278 278 278 279 279 280 280 280 279 276 274 272 265 260 259 258 257 260 265 269 274 279 282 285 287 287 287 286 286 285 285 284 281 278
271 271 272 273 273 274 275 276 277 277 278 278 279 278 278 279 279 278 276 274 266 263 260 257 257 259 263 267 272 276 280 283 285 287 287 286 285 285 284 283 282 281 278
Height
5936 5936 5936 5937 5937 5936 5935 5934 5933 5932 5931 5930 5929 5928 5926 5925 5924 5923 5922 5921 5919 5918 5917 5916 5915 5913 5912 5911 5910 5909 5907 5906 5905 5904 5903 5902 5901 5901 5900 5900 5900 5899 5899
5938 5938 5938 5938 5938 5937 5937 5935 5934 5933 5932 5931 5929 5928 5927 5926 5925 5924 5923 5922 5920 5919 5918 5917 5916 5914 5913 5912 5911 5909 5908 5907 5906 5905 5904 5903 5902 5901 5901 5900 5900 5900 5900
5940 5939 5939 5939 5939 5938 5937 5936 5935 5934 5933 5931 5930 5929 5928 5927 5926 5925 5923 5922 5921 5920 5919 5918 5916 5915 5914 5913 5911 5910 5909 5908 5907 5905 5904 5903 5902 5902 5901 5900 5900 5900 5900
5941 5940 5940 5940 5940 5939 5938 5937 5936 5934 5933 5932 5931 5930 5928 5927 5926 5925 5924 5922 5921 5920 5919 5918 5917 5915 5914 5913 5912 5910 5909 5908 5907 5906 5905 5904 5903 5902 5901 5901 5900 5900 5899
5942 5941 5941 5940 5940 5939 5938 5937 5936 5935 5933 5932 5931 5930 5929 5927 5926 5925 5924 5923 5921 5920 5919 5918 5917 5915 5914 5913 5912 5910 5909 5908 5907 5906 5905 5904 5903 5902 5902 5901 5900 5900 5899
5942 5941 5941 5940 5940 5940 5939 5938 5936 5935 5934 5932 5931 5930 5929 5928 5927 5925 5924 5923 5922 5920 5919 5918 5917 5915 5914 5912 5911 5910 5909 5908 5907 5906 5905 5904 5903 5902 5901 5901 5900 5899 5899
5941 5941 5940 5940 5940 5939 5939 5938 5936 5935 5934 5933 5931 5930 5929 5928 5927 5925 5924 5923 5922 5920 5919 5918 5916 5915 5913 5912 5911 5909 5908 5907 5906 5905 5904 5904 5903 5902 5901 5900 5899 5898 5898
5940 5940 5939 5939 5939 5939 5938 5937 5936 5935 5934 5933 5932 5930 5929 5928 5927 5926 5925 5923 5922 5921 5919 5918 5916 5915 5913 5912 5910 5909 5908 5906 5905 5904 5903 5903 5902 5901 5900 5899 5898 5897 5896
5939 5938 5938 5938 5938 5938 5937 5936 5935 5934 5933 5932 5931 5930 5929 5928 5926 5925 5924 5923 5922 5921 5919 5918 5916 5914 5913 5911 5909 5908 5906 5905 5904 5903 5902 5901 5900 5899 5898 5897 5896 5895 5895
5937 5937 5937 5937 5936 5936 5936 5935 5934 5933 5932 5931 5930 5929 5927 5926 5925 5924 5923 5922 5921 5920 5918 5917 5915 5914 5912 5910 5908 5907 5905 5903 5902 5901 5900 5899 5898 5897 5897 5896 5895 5894 5893
5935 5935 5935 5935 5934 5934 5934 5933 5932 5931 5930 5929 5928 5927 5926 5925 5924 5923 5922 5921 5920 5919 5917 5916 5915 5913 5911 5909 5907 5905 5903 5902 5900 5899 5898 5897 5896 5895 5894 5893 5892 5892 5891
5932 5932 5932 5932 5932 5932 5931 5930 5930 5929 5928 5927 5926 5925 5924 5923 5922 5921 5920 5919 5918 5916 5915 5914 5913 5911 5909 5907 5906 5904 5902 5900 5898 5897 5895 5894 5893 5892 5891 5890 5890 5889 5888
5930 5929 5929 5929 5929 5928 5928 5927 5927 5926 5925 5924 5923 5922 5921 5920 5919 5918 5917 5916 5915 5914 5913 5912 5910 5909 5907 5905 5904 5902 5900 5898 5896 5894 5893 5892 5890 5889 5888 5887 5886 5886 5885
5927 5927 5926 5926 5925 5925 5924 5924 5923 5922 5921 5921 5920 5919 5918 5917 5916 5915 5914 5912 5911 5910 5909 5908 5907 5906 5904 5903 5901 5899 5897 5895 5894 5892 5891 5889 5887 5886 5884 5883 5883 5882 5882
5924 5923 5923 5922 5922 5921 5920 5920 5919 5918 5917 5917 5916 5915 5914 5913 5912 5911 5910 5908 5907 5906 5904 5904 5903 5902 5901 5899 5897 5896 5894 5892 5890 5889 5887 5886 5884 5883 5881 5880 5879 5878 5878
5920 5920 5919 5918 5917 5917 5916 5915 5914 5913 5912 5912 5911 5910 5909 5908 5907 5906 5905 5904 5903 5901 5900 5899 5897 5897 5896 5895 5893 5891 5889 5888 5886 5885 5883 5882 5881 5879 5877 5876 5875 5874 5873
5916 5915 5914 5913 5912 5911 5910 5909 5908 5908 5907 5906 5905 5904 5903 5902 5901 5901 5900 5899 5897 5896 5894 5893 5892 5891 5890 5889 5888 5887 5885 5883 5881 5880 5878 5877 5876 5875 5873 5872 5871 5869 5868
5910 5909 5908 5907 5906 5905 5904 5903 5902 5901 5901 5899 5898 5897 5896 5895 5894 5894 5893 5892 5891 5890 5888 5887 5886 5885 5884 5883 5882 5881 5879 5878 5876 5874 5872 5871 5870 5869 5868 5867 5866 5865 5863
5903 5902 5901 5901 5900 5899 5898 5897 5896 5894 5893 5892 5891 5890 5888 5887 5886 5885 5885 5884 5882 5882 5881 5879 5878 5877 5877 5876 5875 5874 5873 5871 5870 5868 5866 5865 5864 5863 5862 5861 5860 5859 5858
5895 5894 5893 5893 5892 5891 5890 5889 5887 5886 5885 5884 5883 5881 5880 5878 5877 5876 5875 5874 5873 5872 5872 5871 5870 5869 5868 5867 5867 5867 5866 5865 5863 5861 5859 5858 5857 5856 5855 5853 5853 5852 5851
5886 5885 5885 5884 5884 5882 5881 5880 5878 5877 5876 5875 5874 5872 5870 5869 5868 5867 5866 5864 5863 5862 5862 5861 5861 5860 5860 5859 5859 5859 5859 5858 5856 5854 5852 5850 5849 5848 5847 5846 5844 5844 5843
5877 5876 5876 5875 5874 5874 5872 5870 5869 5868 5867 5866 5864 5862 5860 5858 5857 5857 5856 5854 5853 5852 5852 5852 5852 5851 5851 5851 5851 5851 5851 5851 5849 5847 5845 5843 5841 5839 5838 5837 5836 5835 5834
5868 5867 5866 5866 5865 5864 5862 5861 5860 5859 5857 5855 5853 5852 5851 5849 5847 5846 5844 5843 5842 5842 5842 5842 5843 5843 5843 5843 5843 5843 5843 5843 5841 5840 5837 5835 5832 5830 5829 5827 5827 5826 5825
5859 5858 5857 5856 5855 5853 5852 5851 5849 5847 5846 5844 5842 5841 5840 5838 5837 5834 5833 5832 5832 5832 5832 5833 5834 5835 5835 5835 5835 5835 5834 5833 5832 5832 5830 5827 5824 5821 5820 5818 5818 5817 5816
5849 5848 5847 5846 5844 5843 5841 5839 5838 5836 5836 5834 5833 5831 5830 5828 5826 5825 5823 5823 5822 5822 5823 5825 5826 5826 5827 5827 5827 5827 5826 5825 5823 5822 5821 5819 5815 5813 5811 5810 5809 5808 5807
5839 5838 5836 5835 5833 5831 5829 5827 5825 5824 5822 5821 5821 5819 5818 5816 5816 5815 5814 5813 5813 5813 5814 5816 5817 5818 5819 5819 5819 5818 5817 5816 5814 5813 5812 5810 5808 5805 5803 5801 5800 5799 5798